Location: Unspecified
(0.0000°N, 0.0000°E)
Time: 07:06:17
(UTC+00:00)

Vanguard 3 - Pass Details

Date: 26 November 2019
Orbit: 508 x 3263 km, 33.3° (Epoch: 11 December)

Event Time Altitude Azimuth Distance (km) Brightness Sun altitude
Rises 10:04:35 0° 260° (W) 4,703 10.8 57.4°
Reaches altitude 10° 10:07:31 10° 268° (W) 4,049 10.6 57.9°
Maximum altitude 10:18:12 40° 334° (NNW) 3,253 10.4 59.8°
Drops below altitude 10° 10:34:36 10° 37° (NE) 6,050 11.6 62.6°
Sets 10:40:19 0° 44° (NE) 7,201 11.9 63.4°
